| time (UTC) | temp F | wind direction | speed knots | gust knots | rain 1hr in | rain 24hr in | rain mn in | humidity % | barometer mb |
| 20260507094555 | 51 | 159 | 0.0 | 1.7 | 0.00 | 0.00 | 0.00 | 88 | 1020.5 |
| 20260507093049 | 51 | 0 | 0.0 | 3.5 | 0.00 | 0.00 | 0.00 | 88 | 1020.6 |
| 20260507091538 | 50 | 0 | 0.0 | 2.6 | 0.00 | 0.00 | 0.00 | 88 | 1020.4 |
| 20260507090044 | 50 | 0 | 0.0 | 4.3 | 0.00 | 0.00 | 0.00 | 89 | 1020.6 |
| 20260507084542 | 50 | 0 | 0.0 | 3.5 | 0.00 | 0.00 | 0.00 | 89 | 1020.5 |
| 20260507083049 | 50 | 172 | 1.7 | 4.3 | 0.00 | 0.00 | 0.00 | 89 | 1020.5 |
| 20260507081543 | 50 | 141 | 0.9 | 4.3 | 0.00 | 0.00 | 0.00 | 89 | 1020.6 |
| 20260507080044 | 51 | 171 | 0.9 | 4.3 | 0.00 | 0.00 | 0.00 | 90 | 1020.5 |
| 20260507074548 | 51 | 177 | 1.7 | 5.2 | 0.00 | 0.00 | 0.00 | 90 | 1020.3 |
| 20260507073049 | 51 | 199 | 1.7 | 5.2 | 0.00 | 0.00 | 0.00 | 91 | 1020.5 |
| 20260507071546 | 51 | 151 | 1.7 | 3.5 | 0.00 | 0.00 | 0.00 | 91 | 1020.3 |
| 20260507070054 | 51 | 187 | 0.9 | 3.5 | 0.00 | 0.00 | 0.00 | 92 | 1020.3 |
| 20260507064550 | 52 | 184 | 1.7 | 4.3 | 0.00 | 0.00 | 0.00 | 92 | 1020.4 |
| 20260507063042 | 52 | 173 | 0.9 | 6.1 | 0.00 | 0.00 | 0.00 | 92 | 1020.4 |
| 20260507061545 | 52 | 175 | 0.9 | 5.2 | 0.00 | 0.00 | 0.00 | 91 | 1020.4 |
| 20260507060048 | 52 | 181 | 0.9 | 3.5 | 0.00 | 0.00 | 0.00 | 91 | 1020.5 |
| 20260507054542 | 52 | 0 | 0.9 | 2.6 | 0.00 | 0.00 | 0.00 | 90 | 1020.6 |
| 20260507053048 | 52 | 173 | 0.0 | 2.6 | 0.00 | 0.00 | 0.00 | 90 | 1020.5 |
| 20260507051544 | 52 | 0 | 0.0 | 4.3 | 0.00 | 0.00 | 0.00 | 89 | 1020.5 |
| 20260507050053 | 53 | 0 | 0.9 | 6.1 | 0.00 | 0.00 | 0.00 | 89 | 1020.4 |
| 20260507044557 | 53 | 169 | 0.0 | 3.5 | 0.00 | 0.00 | 0.00 | 88 | 1020.4 |
| 20260507043048 | 53 | 0 | 0.0 | 2.6 | 0.00 | 0.00 | 0.00 | 88 | 1020.4 |
| 20260507041547 | 53 | 0 | 0.0 | 2.6 | 0.00 | 0.00 | 0.00 | 88 | 1020.3 |
| 20260507040046 | 54 | 186 | 0.9 | 4.3 | 0.00 | 0.00 | 0.00 | 86 | 1020.4 |
| 20260507034550 | 54 | 0 | 0.0 | 1.7 | 0.00 | 0.00 | 0.00 | 85 | 1020.3 |
| 20260507033100 | 54 | 165 | 0.0 | 1.7 | 0.00 | 0.00 | 0.00 | 84 | 1020.2 |
| 20260507031558 | 54 | 0 | 0.9 | 6.1 | 0.00 | 0.00 | 0.00 | 83 | 1020.1 |
| 20260507024605 | 55 | 192 | 0.0 | 4.3 | 0.00 | 0.00 | 0.00 | 82 | 1019.9 |
| 20260507023043 | 55 | 0 | 0.0 | 6.1 | 0.00 | 0.00 | 0.00 | 81 | 1019.7 |
| 20260507021552 | 56 | 157 | 0.9 | 6.1 | 0.00 | 0.00 | 0.00 | 81 | 1019.8 |
| 20260507020054 | 56 | 184 | 1.7 | 6.1 | 0.00 | 0.00 | 0.00 | 80 | 1019.7 |
| 20260507014552 | 56 | 192 | 0.9 | 4.3 | 0.00 | 0.00 | 0.00 | 81 | 1019.7 |
| 20260507013045 | 56 | 177 | 0.0 | 4.3 | 0.00 | 0.00 | 0.00 | 81 | 1019.8 |
| 20260507011552 | 56 | 186 | 0.0 | 2.6 | 0.00 | 0.00 | 0.00 | 81 | 1019.9 |
| 20260507010047 | 56 | 176 | 0.9 | 5.2 | 0.00 | 0.00 | 0.00 | 81 | 1019.8 |
| 20260507004542 | 56 | 0 | 0.0 | 6.1 | 0.00 | 0.00 | 0.00 | 82 | 1019.9 |
| 20260507003042 | 56 | 0 | 1.7 | 7.0 | 0.00 | 0.00 | 0.00 | 81 | 1020.0 |
| 20260507001543 | 56 | 154 | 0.9 | 4.3 | 0.00 | 0.00 | 0.00 | 81 | 1019.9 |
| 20260507000049 | 56 | 185 | 0.0 | 4.3 | 0.00 | 0.00 | 0.00 | 81 | 1019.9 |
| 20260506234553 | 56 | 0 | 0.9 | 7.0 | 0.00 | 0.00 | 0.00 | 81 | 1019.9 |
| 20260506233048 | 56 | 188 | 1.7 | 5.2 | 0.00 | 0.00 | 0.00 | 80 | 1020.0 |
| 20260506231544 | 56 | 0 | 0.9 | 7.8 | 0.00 | 0.00 | 0.00 | 80 | 1020.1 |
| 20260506224543 | 56 | 157 | 0.0 | 3.5 | 0.00 | 0.00 | 0.00 | 78 | 1020.0 |
| 20260506223045 | 56 | 0 | 0.9 | 4.3 | 0.00 | 0.00 | 0.00 | 78 | 1020.1 |
| 20260506221548 | 57 | 208 | 0.9 | 7.8 | 0.00 | 0.00 | 0.00 | 77 | 1020.2 |
| 20260506220042 | 58 | 192 | 0.9 | 7.8 | 0.00 | 0.00 | 0.00 | 76 | 1020.2 |
| 20260506214547 | 57 | 165 | 0.9 | 7.8 | 0.00 | 0.00 | 0.00 | 77 | 1020.1 |
| 20260506213047 | 56 | 0 | 1.7 | 5.2 | 0.00 | 0.00 | 0.00 | 77 | 1020.3 |
| 20260506211543 | 56 | 175 | 0.9 | 8.7 | 0.00 | 0.00 | 0.00 | 78 | 1020.4 |
| 20260506210050 | 57 | 140 | 0.9 | 5.2 | 0.00 | 0.00 | 0.00 | 78 | 1020.2 |
| 20260506204548 | 56 | 178 | 0.0 | 4.3 | 0.00 | 0.00 | 0.00 | 79 | 1020.2 |
| 20260506203044 | 57 | 190 | 1.7 | 5.2 | 0.00 | 0.00 | 0.00 | 78 | 1020.1 |
| 20260506201545 | 57 | 0 | 0.0 | 5.2 | 0.00 | 0.00 | 0.00 | 79 | 1020.1 |
| 20260506200044 | 56 | 159 | 0.9 | 6.1 | 0.00 | 0.00 | 0.00 | 80 | 1020.1 |
| 20260506194549 | 55 | 156 | 0.9 | 3.5 | 0.00 | 0.00 | 0.00 | 81 | 1020.0 |
| 20260506193043 | 55 | 191 | 1.7 | 6.1 | 0.00 | 0.00 | 0.00 | 82 | 1020.0 |
| 20260506191545 | 55 | 155 | 0.9 | 7.8 | 0.00 | 0.00 | 0.00 | 83 | 1019.9 |
| 20260506190049 | 55 | 178 | 1.7 | 6.1 | 0.00 | 0.00 | 0.00 | 85 | 1019.8 |
| 20260506184554 | 53 | 0 | 1.7 | 5.2 | 0.00 | 0.00 | 0.00 | 86 | 1019.9 |
| 20260506183045 | 53 | 187 | 0.0 | 5.2 | 0.00 | 0.00 | 0.00 | 88 | 1019.9 |
| 20260506181542 | 53 | 0 | 0.0 | 6.1 | 0.00 | 0.00 | 0.00 | 89 | 1019.9 |
| 20260506180047 | 52 | 0 | 0.0 | 1.7 | 0.00 | 0.00 | 0.00 | 91 | 1019.7 |
| 20260506174541 | 52 | 0 | 0.9 | 7.0 | 0.00 | 0.00 | 0.00 | 92 | 1019.6 |
| 20260506173121 | 52 | 0 | 0.9 | 4.3 | 0.00 | 0.00 | 0.00 | 93 | 1019.6 |
| 20260506171542 | 52 | 0 | 0.0 | 2.6 | 0.00 | 0.00 | 0.00 | 94 | 1019.6 |
| 20260506170053 | 51 | 182 | 2.6 | 7.8 | 0.00 | 0.00 | 0.00 | 94 | 1019.6 |
| 20260506164548 | 51 | 188 | 0.9 | 5.2 | 0.00 | 0.00 | 0.00 | 94 | 1019.6 |
| 20260506163044 | 51 | 182 | 1.7 | 6.1 | 0.00 | 0.00 | 0.00 | 94 | 1019.4 |
| 20260506161612 | 51 | 166 | 0.0 | 5.2 | 0.00 | 0.00 | 0.00 | 94 | 1019.1 |
| 20260506160046 | 51 | 179 | 0.9 | 5.2 | 0.00 | 0.00 | 0.00 | 94 | 1018.9 |
| 20260506154555 | 51 | 178 | 1.7 | 5.2 | 0.00 | 0.00 | 0.00 | 94 | 1019.2 |
| 20260506153051 | 51 | 0 | 0.9 | 4.3 | 0.00 | 0.00 | 0.00 | 94 | 1019.6 |
| 20260506151548 | 51 | 187 | 1.7 | 4.3 | 0.00 | 0.00 | 0.00 | 94 | 1019.3 |
| 20260506150049 | 51 | 123 | 0.9 | 4.3 | 0.00 | 0.00 | 0.00 | 94 | 1019.0 |
| 20260506144543 | 51 | 174 | 1.7 | 5.2 | 0.00 | 0.00 | 0.00 | 94 | 1019.2 |
| 20260506143047 | 51 | 194 | 0.0 | 6.1 | 0.00 | 0.00 | 0.00 | 93 | 1019.4 |
| 20260506141547 | 51 | 182 | 1.7 | 5.2 | 0.00 | 0.00 | 0.00 | 93 | 1018.9 |
| 20260506140045 | 52 | 161 | 1.7 | 5.2 | 0.00 | 0.00 | 0.00 | 93 | 1018.6 |
| 20260506134544 | 52 | 0 | 0.9 | 3.5 | 0.00 | 0.00 | 0.00 | 92 | 1019.0 |
| 20260506133041 | 52 | 171 | 0.0 | 3.5 | 0.00 | 0.00 | 0.00 | 91 | 1018.7 |
| 20260506131552 | 52 | 186 | 0.0 | 2.6 | 0.00 | 0.00 | 0.00 | 91 | 1018.5 |
| 20260506130100 | 52 | 182 | 1.7 | 5.2 | 0.00 | 0.00 | 0.00 | 91 | 1018.1 |
| 20260506124553 | 52 | 168 | 0.0 | 3.5 | 0.00 | 0.00 | 0.00 | 91 | 1018.2 |
| 20260506123043 | 52 | 167 | 0.0 | 4.3 | 0.00 | 0.00 | 0.00 | 91 | 1018.2 |
| 20260506121541 | 52 | 175 | 0.9 | 4.3 | 0.00 | 0.00 | 0.00 | 91 | 1018.1 |
| 20260506120101 | 52 | 169 | 0.0 | 4.3 | 0.00 | 0.00 | 0.00 | 90 | 1017.9 |
| 20260506114546 | 52 | 0 | 0.9 | 6.1 | 0.00 | 0.00 | 0.00 | 90 | 1017.8 |
| 20260506113052 | 52 | 169 | 0.9 | 7.0 | 0.00 | 0.00 | 0.00 | 90 | 1017.7 |
| 20260506111542 | 52 | 171 | 1.7 | 4.3 | 0.00 | 0.00 | 0.00 | 89 | 1017.8 |
| 20260506110051 | 52 | 0 | 0.9 | 4.3 | 0.00 | 0.00 | 0.00 | 89 | 1017.7 |
| 20260506104551 | 52 | 0 | 1.7 | 3.5 | 0.00 | 0.00 | 0.00 | 89 | 1017.5 |
| 20260506103053 | 52 | 0 | 0.0 | 2.6 | 0.00 | 0.00 | 0.00 | 89 | 1017.3 |
| 20260506101551 | 52 | 0 | 0.0 | 1.7 | 0.00 | 0.00 | 0.00 | 89 | 1017.2 |
| 20260506100101 | 52 | 185 | 0.9 | 4.3 | 0.00 | 0.00 | 0.00 | 89 | 1017.2 |